{"data":{"norad_id":48320,"intl_designator":"2021-036AW","name":"STARLINK-2029","alt_names":[],"object_type":"PAYLOAD","status":"ACTIVE","operator":null,"country":"US","launch_date":"2021-04-29","launch_site_code":"AFETR","launch_vehicle":null,"mission":null,"orbit_class":"UNKNOWN","rcs_meters":null,"size_class":null,"mass_kg":null,"dimensions":null,"purposes":["comms"],"wikipedia_slug":null,"has_3d_model":false,"image_url":null,"decayed_at":null,"tle_current":{"epoch":"2026-05-25T03:22:54.007104Z","epoch_age_seconds":59379,"freshness":"FRESH","line1":"1 48320U 21036AW  26145.14090286  .00000595  00000+0  30961-4 0  9998","line2":"2 48320  53.1606 105.8687 0001371  99.1904 260.9253 15.31693162279742","mean_motion":15.31693162,"eccentricity":0.0001371,"inclination_deg":53.1606,"raan_deg":105.8687,"arg_perigee_deg":99.1904,"mean_anomaly_deg":260.9253,"bstar":3.0961e-5,"rev_number":27974,"period_min":94.013607667983,"perigee_km":469.821395193,"apogee_km":471.69936285432,"semimajor_km":6848.8973790237,"source":"CELESTRAK","updated_at":"2026-05-25T13:38:16.681350Z"}}}